Location: Bronnegerveen
(52.9548°N, 6.8388°E)
Time: 01:28:38
(UTC+00:00)

Cosmos 1674 Rocket - Pass Details

Date: 15 June 2025
Orbit: 598 x 622 km, 82.5° (Epoch: 07 July)

Event Time Altitude Azimuth Distance (km) Brightness Sun altitude
Exits shadow 01:38:17 12° 218° (SW) 1,835 5.3 -9.0°
Maximum altitude 01:42:04 41° 288° (WNW) 886 4.3 -8.8°
Drops below altitude 10° 01:46:12 10° 359° (N) 1,970 7.2 -8.4°
Sets 01:48:32 0° 7° (N) 2,883 8.4 -8.3°
